This demonstration page uses our WeatherBlox Daily Observations layout. Learn more.

Left ArrowRight Arrow

Hourly Observations for November 28, 2019

Temp ( °F °C ) Dew Point ( °F °C ) Humidity (%) Winds ( mph kmh ) Pressure ( in mb ) Visibility ( mi km ) Precip ( " mm )
12:01 am 00:01 Cloudy 36 2.2 34 1.1 93 93 WNW 3 6 29.58 1002 10 16 0.00 0.00
12:30 am 00:30 Cloudy with Heavy Rain 36 2.2 33 0.6 89 89 N 5 7 29.60 1002 3 5 0.02 0.51
12:38 am 00:38 Cloudy with Light Rain 36 2.2 34 1.1 93 93 N 5 7 29.59 1002 3 4 0.06 1.52
12:45 am 00:45 Cloudy with Rain 36 2.2 34 1.1 93 93 NW 5 7 29.59 1002 4 6 0.07 1.78
12:53 am 00:53 Cloudy with Light Rain 36 2.2 34 1.1 93 93 NNW 5 7 29.57 1001 6 10 0.08 2.03
1:16 am 01:16 Cloudy 36 2.2 34 1.1 93 93 Calm 29.60 1002 10 16 0.00 0.00
1:26 am 01:26 Cloudy 37 2.8 35 1.7 93 93 Calm 29.61 1003 10 16 0.00 0.00
1:36 am 01:36 Cloudy 37 2.8 35 1.7 93 93 Calm 29.62 1003 10 16 0.00 0.00
1:44 am 01:44 Cloudy 37 2.8 34 1.1 89 89 Calm 29.63 1003 10 16 0.00 0.00
1:53 am 01:53 Cloudy 37 2.8 34 1.1 89 89 N 5 7 29.60 1003 10 16 0.00 0.00
2:53 am 02:53 Cloudy with Rain 37 2.8 35 1.7 93 93 W 3 6 29.61 1003 5 8 0.07 1.78
3:26 am 03:26 Cloudy with Light Rain 36 2.2 35 1.7 97 97 SW 3 6 29.64 1004 5 8 0.06 1.52
3:44 am 03:44 Cloudy with Rain 36 2.2 34 1.1 93 93 Calm 29.65 1004 4 6 0.10 2.54
3:53 am 03:53 Cloudy with Light Rain 36 2.2 34 1.1 93 93 Calm 29.63 1004 4 6 0.12 3.05
4:51 am 04:51 Cloudy with Light Rain 36 2 34 1 93 93 N 5 7 29.65 1004 9 14 0.03 0.76
4:53 am 04:53 Cloudy with Light Rain 36 2.2 34 1.1 93 93 N 5 7 29.64 1004 10 16 0.03 0.76
5:44 am 05:44 Cloudy 37 2.8 34 1.1 89 89 NNE 3 6 29.67 1005 10 16 0.00 0.00
5:53 am 05:53 Cloudy 37 2.8 35 1.7 93 93 Calm 29.66 1005 10 16 0.00 0.00
6:05 am 06:05 Cloudy with Light Rain 37 2.8 35 1.7 93 93 Calm 29.68 1005 9 14 0.00 0.00
6:25 am 06:25 Cloudy with Light Rain 37 2.8 34 1.1 89 89 N 3 6 29.69 1005 9 14 0.01 0.25
6:32 am 06:32 Cloudy 37 2.8 34 1.1 89 89 Calm 29.69 1005 10 16 0.01 0.25
6:53 am 06:53 Cloudy 37 2.8 34 1.1 89 89 N 3 6 29.68 1005 10 16 0.01 0.25
7:13 am 07:13 Cloudy 37 2.8 34 1.1 89 89 NNW 3 6 29.70 1006 10 16 0.00 0.00
7:30 am 07:30 Mostly Cloudy 37 2.8 34 1.1 89 89 N 3 6 29.70 1006 10 16 0.00 0.00
7:41 am 07:41 Mostly Cloudy 37 2.8 34 1.1 89 89 N 5 7 29.70 1006 10 16 0.00 0.00
7:53 am 07:53 Mostly Cloudy 36 2.2 34 1.1 93 93 WNW 5 7 29.69 1006 10 16 0.00 0.00
8:53 am 08:53 Cloudy 38 3.3 36 2.2 93 93 N 3 6 29.71 1006 10 16 0.00 0.00
9:53 am 09:53 Cloudy 42 5.6 37 2.8 82 82 NNW 6 9 29.71 1006 10 16 0.00 0.00
10:53 am 10:53 Partly Cloudy 44 6.7 37 2.8 76 76 N 5 7 29.70 1006 10 16 0.00 0.00
11:53 am 11:53 Mostly Sunny 47 8.3 37 2.8 69 69 N 6 9 29.68 1005 10 16 0.00 0.00
12:53 pm 12:53 Mostly Sunny 49 9.4 36 2.2 61 61 N 7 11 29.64 1004 10 16 0.00 0.00
1:53 pm 13:53 Sunny 50 10 32 0 50 50 N 10 17 29.61 1003 10 16 0.00 0.00
2:53 pm 14:53 Sunny 49 9.4 32 0 52 52 NNW 5 7 29.60 1002 10 16 0.00 0.00
3:53 pm 15:53 Sunny 50 10 33 0.6 52 52 NNW 8 13 29.60 1002 10 16 0.00 0.00
4:53 pm 16:53 Clear 47 8.3 33 0.6 59 59 NW 5 7 29.59 1002 10 16 0.00 0.00
5:53 pm 17:53 Clear 44 6.7 32 0 63 63 NNW 5 7 29.59 1002 10 16 0.00 0.00
6:53 pm 18:53 Clear 43 6.1 32 0 65 65 N 7 11 29.59 1002 10 16 0.00 0.00
7:53 pm 19:53 Clear 43 6.1 33 0.6 68 68 NNW 7 11 29.59 1002 10 16 0.00 0.00
8:53 pm 20:53 Clear 42 5.6 32 0 68 68 NNW 7 11 29.59 1002 10 16 0.00 0.00
9:53 pm 21:53 Clear 41 5 30 -1.1 65 65 NNW 6 9 29.60 1002 10 16 0.00 0.00
10:53 pm 22:53 Clear 42 5.6 29 -1.7 60 60 NNW 7 11 29.60 1002 10 16 0.00 0.00
11:53 pm 23:53 Clear 40 4.4 29 -1.7 65 65 NW 6 9 29.60 1002 10 16 0.00 0.00

Powered by AerisWeather